Regional Weather Roundup
Issued by NWS

Home | Current Version | Previous Version | Text Only | Print | Product List | Glossary On
Versions: 1 2 3 4 5 6 7 8 9 10 11 12 13 14 15 16 17 18 19 20 21 22 23 24 25 26 27 28 29 30 31 32 33 34 35 36 37 38 39 40 41 42 43 44 45 46 47 48 49 50
000
ASUS43 KTOP 181059
RWRKS

WEATHER ROUNDUP FOR KANSAS
NATIONAL WEATHER SERVICE GOODLAND KS
600 AM CDT FRI AUG 18 2017

NOTE:  "FAIR" INDICATES FEW OR NO CLOUDS BELOW 12,000 FEET WITH NO
SIGNIFICANT WEATHER AND/OR OBSTRUCTIONS TO VISIBILITY.

KSZ001>006-013>018-027>032-041>047-181200-
NORTHWEST KANSAS

CITY           SKY/WX    TMP DP  RH WIND       PRES   REMARKS
GOODLAND       CLOUDY    60  55  83 SW13      30.03S
HAYS           CLOUDY    63  59  87 SW10      29.98R
HILL CITY      CLOUDY    64  59  83 VRB5      30.01R
RUSSELL        CLOUDY    66  61  84 N13       29.97R
$$

KSZ061>065-074>080-084>089-181200-
SOUTHWEST KANSAS

CITY           SKY/WX    TMP DP  RH WIND       PRES   REMARKS
DODGE CITY     CLOUDY    67  61  81 S9        30.01F
ELKHART          N/A     60  60 100 E17         N/A
GARDEN CITY    CLOUDY    62  59  90 SW10      30.03R
GREAT BEND     CLOUDY    64  63  96 S5        29.98R
LIBERAL        CLOUDY    63  59  87 S17       30.06S
$$

KSZ066>073-081>083-090>101-181200-
SOUTHEAST KANSAS

CITY           SKY/WX    TMP DP  RH WIND       PRES   REMARKS
CHANUTE        MOCLDY    66  64  93 SE7       29.98S
COFFEYVILLE    PTCLDY    65  64  97 NE3       29.98R
HUTCHINSON     CLOUDY    66  64  93 S5        29.94S
MEDICINE LODGE   N/A     69  61  75 S6        29.97F
PARSONS        PTCLDY    63  62  97 CALM      29.99R
WICHITA INTL   CLOUDY    68  64  87 SW5       29.95R
WICHITA JABRA  CLOUDY    69  63  81 S3        29.95R
WICHITA MCCONL CLOUDY    69  62  79 S5        29.95S
WINFIELD       MOCLDY    67  64  90 S7        29.99S
$$

KSZ007>012-019>026-033>040-048>060-102>105-181200-
NORTHEAST KANSAS

CITY           SKY/WX    TMP DP  RH WIND       PRES   REMARKS
CONCORDIA      CLEAR     65  61  87 N5        29.95S
EMPORIA        CLOUDY    67  61  81 E7        29.94F
LAWRENCE       CLEAR     62  61  96 E5        29.94F
MANHATTAN      CLOUDY    66  64  93 SW5       29.91S
OLATHE IND     CLEAR     65  59  81 S8        29.96S
OLATHE EXE     PTCLDY    62  62 100 S5        29.96R
SALINA         CLOUDY    69  62  78 NW9       29.95R
TOPEKA BILLARD PTCLDY    64  61  90 CALM      29.94R
TOPEKA FORBES  CLOUDY    67  62  84 S6        29.94S
$$



USA.gov is the U.S. government's official web portal to all federal, state and local government web resources and services.